Regional Weather Roundup
Issued by NWS Cleveland, OH

Home | Current Version | Previous Version | Graphics & Text | Print | Product List | Glossary On
Versions: 1 2 3 4 5 6 7 8 9 10 11 12 13 14 15 16 17 18 19 20 21 22 23 24 25 26 27 28 29 30 31 32 33 34 35 36 37 38 39 40 41 42 43 44 45 46 47 48 49 50
000
ASUS41 KCLE 291312
RWRCLE
OHIO REGIONAL WEATHER ROUNDUP
NATIONAL WEATHER SERVICE WILMINGTON, OH
900 AM EDT FRI JUL 29 2016

NOTE: "FAIR" INDICATES FEW OR NO CLOUDS BELOW 12,000 FEET WITH NO
SIGNIFICANT WEATHER AND/OR OBSTRUCTIONS TO VISIBILITY.

OHZ001>008-015>018-024>027-034-035-043-044-291400-
   NORTHWEST OHIO

CITY           SKY/WX    TMP DP  RH WIND       PRES   REMARKS
DEFIANCE       CLOUDY    74  62  66 NE6       29.95S
FINDLAY        FAIR      74  66  76 SE3       29.95R
TOLEDO EXPRESS FAIR      72  64  76 N3        29.95R
TOLEDO EXEC    FAIR      77  68  73 VRB3      29.95S
LIMA           FAIR      73  69  87 E3        29.95S
$$

OHZ009>014-019>023-028>033-038-089-291400-
   NORTHEAST OHIO

CITY           SKY/WX    TMP DP  RH WIND       PRES   REMARKS
CLE-HOPKINS    FAIR      75  67  76 W3        29.96R
CLE-LAKEFRONT  FAIR      76  69  79 S5        29.93R
CUY CO. ARPT   CLOUDY    73  73 100 SE6       29.96R FOG
LORAIN-ELYRIA  FAIR      74  69  85 CALM      29.96R
ASHTABULA      CLOUDY    68  68 100 S3        29.96S FOG
AKRON-CANTON   CLOUDY    70  67  90 S5        29.97R FOG
WOOSTER        FOG       68  68 100 CALM      29.97R VSB 1/4
MANSFIELD      FAIR      74  68  81 SE3       29.97R
YOUNGSTOWN     FOG       68  67  96 W3        29.96R VSB 1/2
$$

OHZ042-051>053-060>062-070>072-077>081-291400-
  SOUTHWEST OHIO

CITY           SKY/WX    TMP DP  RH WIND       PRES   REMARKS
CINC-COVINGTON FAIR      74  72  93 SW3       29.95F FOG
CINC-LUNKEN    PTSUNNY   75  73  93 CALM      29.94F
HAMILTON       FAIR      73  70  90 CALM      29.95F
DAYTON         FAIR      75  69  81 CALM      29.96S
WRIGHT-PAT AFB FAIR      74  71  88 S2        29.95R
DAYTON GENERAL CLOUDY    73  68  84 S6        29.95S
WILMINGTON     CLOUDY    72  71  97 S6        29.96S FOG
$$

OHZ036-037-039>041-045>050-054>059-063>069-073>076-082>088-291400-
  CENTRAL AND SOUTHEAST OHIO

CITY           SKY/WX    TMP DP  RH WIND       PRES   REMARKS
COLUMBUS       FOG       69  69 100 S6        29.95S VSB 1/4
OSU AIRPORT    FOG       71  71 100 SE3       29.95S VSB 1/2
BOLTON FIELD   FOG       70  70 100 MISG        N/A  VSB 1/4
RICKENBACK AFB FOG       70  70 100 S3        29.95S VSB 1
NEWARK         CLOUDY    70  70 100 CALM      29.96S FOG
MARION         FAIR      74  66  76 SE5       29.96R
LANCASTER      CLOUDY    72  72 100 SE3       29.96S
ZANESVILLE     CLOUDY    75  70  84 SE3       29.96S
NEW PHILLY     CLOUDY    75  68  78 SW3       29.96S
$$



USA.gov is the U.S. government's official web portal to all federal, state and local government web resources and services.